Regional Weather Roundup
Issued by NWS Wakefield, VA

Home | Current Version | Previous Version | Text Only | Print | Product List | Glossary Off
Versions: 1 2 3 4 5 6 7 8 9 10 11 12 13 14 15 16 17 18 19 20 21 22 23 24 25 26 27 28 29 30 31 32 33 34 35 36 37 38 39 40 41 42 43 44 45 46 47 48 49 50

000
ASUS41 KAKQ 022010
RWRAKQ

REGIONAL WEATHER ROUNDUP
NATIONAL WEATHER SERVICE WAKEFIELD VA
300 PM EST MON MAR 02 2015

Note: "fair" indicates few or no clouds below 12,000 feet with no
significant weather and/or obstructions to visibility. * = Denotes
station may not report precipitation (e.g., rain,snow,etc.),
thunder or fog.

VAZ042-051-052>054-056-022100-
NORTHERN VIRGINIA

CITY           SKY/WX    TMP DP  RH WIND       PRES   REMARKS
WASH NATIONAL  MOSUNNY   45  18  34 NW21      30.29R
DULLES         MOSUNNY   41  15  35 NW15      30.29R
FORT BELVOIR   SUNNY     45  17  32 NW16G23   30.29R
QUANTICO       PTSUNNY   47  19  33 N13G24    30.29S
FREDERICKSBRG* SUNNY     48  19  31 N14       30.27S
STAFFORD*      MOSUNNY   46  15  29 N12G20    30.33R
WARRENTON      SUNNY     47  25  41 N13       30.27R
CULPEPER*      MOSUNNY   48  16  27 N9        30.28R
MANASSAS*      SUNNY     45  19  36 N14       30.29R
LEESBURG*      SUNNY     41  21  45 NW16G24   30.29F
WINCHESTER     SUNNY     43  10  26 NW14G21   30.28S
FRONT ROYAL*   FAIR      41  16  36 N9        30.26S
LURAY*         FAIR      46  16  29 NW6       30.26R
$$

VAZ048-049-060>072-079>083-022100-
CENTRAL AND SOUTH CENTRAL VIRGINIA

CITY           SKY/WX    TMP DP  RH WIND       PRES   REMARKS
RICHMOND       PTSUNNY   51  32  48 VRB7      30.25R
CHESTERFIELD*  FAIR      54  28  37 NW10      30.26R
PETERSBURG*    SUNNY     53  36  51 E5        30.24S
HANOVER        SUNNY     52  26  36 VRB7      30.26S
TAPPAHANNOCK*  SUNNY     48  15  26 NW10G17   30.28R
QUINTON*       FAIR      50  34  53 N7        30.25S
CHARLOTTSVILLE SUNNY     50  10  20 CALM      30.24S
GORDONSVILLE*  FAIR      48  18  31 NE7       30.24S
ORANGE*        SUNNY     50  16  25 NW3       30.27S
LOUISA*        SUNNY     54  21  28 N8        30.23S
BUMPASS*       FAIR      50  20  31 N9G16     30.25R
FARMVILLE*     SUNNY     60  25  26 NE7       30.21R
CREWE*         FAIR      56  31  38 NW6       30.22R
FORT PICKETT*  FAIR      54  36  50 N9        30.22S
CHASE CITY*    FAIR      58  27  31 W6        30.22R
CLARKSVILLE*   FAIR      55  32  41 W6        30.22S
SOUTH HILL*    MOSUNNY   52  41  65 NE5       30.28R
LAWRENCEVILLE* MOCLDY    51  39  63 CALM      30.23R
EMPORIA*       PTSUNNY   52  37  58 N7        30.26R
$$

VAZ088>098-022100-
SOUTHEAST VIRGINIA

CITY           SKY/WX    TMP DP  RH WIND       PRES   REMARKS
NORFOLK        SUNNY     41  31  67 N12       30.27R
VIRGINIA BEACH PTSUNNY   46  31  55 N15       30.26R
NORFOLK NAVAL  PTSUNNY   45  32  60 NE14      30.28R
WEST POINT*    SUNNY     52  24  34 N6        30.28R
SALUDA*        FAIR      44  24  46 N10G16    30.26S
NEWPORT NEWS   SUNNY     50  30  46 NE13      30.26R
LANGLEY AFB    SUNNY     42  34  71 E8        30.26R
FORT EUSTIS    SUNNY     50  32  50 VRB5      30.24R
WILLIAMSBURG*  SUNNY     55  36  47 NE5       30.26S
HR EXEC AP*    FAIR      46  34  61 NE8       30.29R
FRANKLIN*      MOSUNNY   49  37  62 E7        30.26R
WAKEFIELD      SUNNY     52  33  48 N8        30.25S
$$

VAZ020-022-025-037-045-022100-
WEST CENTRAL AND SOUTHWEST VIRGINIA

CITY           SKY/WX    TMP DP  RH WIND       PRES   REMARKS
STAUNTON*      SUNNY     46  13  26 N9        30.25S
WAYNESBORO*    FAIR      46  13  26 N12       30.22S
HOT SPRINGS VA SUNNY     34   9  35 W20G25    30.15S WCI  22
LYNCHBURG      SUNNY     52  19  27 VRB3      30.24S
DANVILLE       SUNNY     56  26  31 N12G17    30.24F
SOUTH BOSTON*  FAIR      56  28  34 NW7       30.24S
MARTINSVILLE   MOSUNNY   55  20  25 NW10G16   30.27S
ROANOKE        SUNNY     48  19  31 W12G20    30.28R
BLACKSBURG     SUNNY     42  17  37 W8        30.28S
DUBLIN*        SUNNY     45  20  37 NW5       30.26S
MARION*        SUNNY     43  26  51 W10G17    30.29S
HILLSVILLE*    SUNNY     44  16  32 NW14G25   30.22F
RICHLANDS*     FAIR      39  21  49 NW5       30.29S
WISE*          MOSUNNY   41  23  48 N9        30.32S
ABINGDON*      SUNNY     43  26  51 N6        30.31F
$$

MDZ021>025-VAZ099-100-022100-
SOUTHERN MARYLAND AND THE DELMARVA PENINSULA

CITY           SKY/WX    TMP DP  RH WIND       PRES   REMARKS
PATUXENT RIVER PTSUNNY   44  20  38 NW15      30.27R
BAY BRIDGE APT   N/A     41  21  45 NW9       30.28S
LEONARDTOWN    MOSUNNY   45  16  31 NW10G17   30.29R
DOVER          SUNNY     40  19  43 W22G29    30.24R
GEORGETOWN     SUNNY     43  21  41 NW12G21   30.24R
EASTON         MOSUNNY   45  23  42 NW16G22   30.30R
CAMBRIDGE      MOSUNNY   43  18  36 NW10G26   30.27R
SALISBURY      MOSUNNY   45  21  38 NW13G22   30.25R
OCEAN CITY     PTSUNNY   43  23  45 NW14G23   30.24R
WALLOPS ISLAND PTSUNNY   43  20  39 NW17G29   30.26R
ACCOMACK*      MOSUNNY   43  19  39 N14G29    30.25S
$$

NCZ012>017-030>032-022100-
NORTH CENTRAL AND EASTERN NORTH CAROLINA

CITY           SKY/WX    TMP DP  RH WIND       PRES   REMARKS
ROANOKE RAPIDS CLOUDY    54  43  66 NE9       30.23R
RALEIGH        PTSUNNY   60  37  42 N6        30.23R
ELIZABETH CITY MOSUNNY   48  35  60 N10       30.27R
AHOSKIE*       MOSUNNY   51  39  64 NE7       30.25R
EDENTON*       MOSUNNY   53  42  66 NE8       30.26R
CURRITUCK*     MOSUNNY   46  31  56 N16G22    30.27R
KILL DEVIL HLS MOSUNNY   41  36  82 N8G18     30.25R
MANTEO         MOSUNNY   43  34  70 N16G23    30.27R
CAPE HATTERAS  MOSUNNY   44  38  79 N10G20    30.26R
TARBORO*       FAIR      61  41  47 N7        30.23R
GOLDSBORO      MOSUNNY   62  49  64 N12       30.19F
WASHINGTON     MOSUNNY   59  42  53 N8        30.22S
GREENVILLE     MOSUNNY   61  41  48 N5        30.23R
NEW BERN       MOSUNNY   63  44  50 N7        30.22S
WILMINGTON     SUNNY     63  49  60 NW12      30.22R
$$

VAZ048-022100-
ELSEWHERE

CITY           SKY/WX    TMP DP  RH WIND       PRES   REMARKS
HARRISBURG PA  MOSUNNY   35  17  47 NW20G26   30.27R WCI  24
BALTIMORE      MOSUNNY   39  13  34 NW18G24   30.28R
ANNAPOLIS      SUNNY     41  11  29 NW13G24   30.28R
ANDREWS AFB    SUNNY     41  15  35 NW22G29   30.26R
PHILADELPHIA   MOSUNNY   39  14  36 W21       30.23R
HENDERSON NC   MOSUNNY   56  28  34 N6        30.23S
GREENSBORO     PTSUNNY   59  32  36 NW12      30.22S
ROCKY MOUNT    MOSUNNY   60  39  45 VRB7      30.22S
$$

VAZ100-022100-
MARINE

STATION/POSITION TIME  TEMP    WIND        PRES    WAVE   SWELL
                       AIR SEA DIR/SP/G            HT/PER HT/PER
                 (UTC) (F)     (DEG/KT/KT) (MB)    (FT/S) (FT/S)
BRANDYWINE LGT   2000          330/ 12/ 14 1024.0R
CAPE MAY NJ      2000   35 33  310/  5/ 14 1023.5R
LEWES DE         2000   35 30  340/ 13/ 15 1024.0R
15NM E FENWICK I 2000   35 34              1023.3F   3/ 7
OCEAN-CITY-INLET 2000          340/ 15/ 20 1023.5R
WACHAPREAGUE VA  2000   43 35  350/ 10/ 21 1024.3R
THOMAS POINT MD  2000   40 32  330/ 15/ 16 1026.1R
COVE POINT MD    2000   39     350/ 16/ 18 1025.3R
SOLOMONS ISLAND  2000      33                N/A
BISHOPS HEAD MD  2000   42 33  320/ 14/ 17 1024.8R
CAMBRIDGE MD     2000   40 32  310/ 12/ 17 1024.9R
LEWISETTA VA     2000   42 33  350/  8/ 12 1025.2R
RAPPAHANNOCK LGT 2000           10/ 25/ 27 1024.9F
STINGRAY PT      2000   38      30/ 19/ 21   N/A
YORK RVR RNG VA  2000   38      60/ 13/ 14 1024.1S
YORKTOWN VA      2000   45 34   40/ 10/ 13 1024.3R
DOMINION TERM VA 2000   40      90/  8/ 11 1024.9R
KIPTOPEKE VA     2000      39   10/ 12/ 17   N/A
CHES BAY BRIDGE  2000          360/ 14/ 16 1024.4R
CAPE HENRY VA    2000   38     350/  7/ 11 1023.6R
CHESAPEAKE LGHT  1900   38     360/ 13/ 15 1025.1F
WILLOUBY STN VA  2000   38      50/  8/  9 1025.5R
S CRANEY ISL VA  2000           40/ 11/ 15 1024.9R
CAPE HENRY BUOY  2000      35                N/A     3/ 7
1ST LANDING BUOY 2000   37      10/ 16/ 17 1024.3R
OFFSHORE WE BUOY 2000      37                N/A     3/ 7   2/ 7
64NM E OF VA BCH 2000   44 51  350/ 21/ 25 1023.2R   4/ 5   2/ 8
DUCK PIER NC     2000   36 35   10/ 10/ 12 1024.1R
44100 DUCK FRF   2000      37                N/A     3/ 8
44056 DUCK FRF   2000      35                N/A     2/ 8
OREGON INLET NC  2000   39 42  350/ 12/ 16 1024.6R
HATTERAS NC      2000          360/ 15/ 18 1024.8R
CAPE LOOKOUT NC  1900   54     300/  3/  3 1022.9F
$$



USA.gov is the U.S. government's official web portal to all federal, state and local government web resources and services.